PRIVATE WETTERSTATION BILLIGHEIM-ALLFELD                       ZURCK
Wetterdaten: Donnerstag, 27.02.2014
Datum Zeit Temp. A. Temp. A. min Temp. A. max Feuchte A. Luftdruck Regen Wind Richtung Richtung Sonnenschein ET Solar Taupunkt Windchill Windben Empfang
27.02.2014 00:00 5,9 C 5,9 C 5,9 C 88 % 1019,4 hPa 0,0 l/m 1,6 km/h (1 Bft) NW 315 0 min 0,000 mm 0 W/m 4,1 C 5,9 C 8,0 km/h (2 Bft) 100 %
27.02.2014 00:10 5,8 C 5,8 C 5,9 C 88 % 1019,5 hPa 0,0 l/m 1,6 km/h (1 Bft) W-NW 292 0 min 0,000 mm 0 W/m 4,0 C 5,8 C 9,7 km/h (2 Bft) 100 %
27.02.2014 00:20 5,8 C 5,8 C 5,8 C 88 % 1019,6 hPa 0,0 l/m 1,6 km/h (1 Bft) W-NW 292 0 min 0,000 mm 0 W/m 4,0 C 5,8 C 8,0 km/h (2 Bft) 100 %
27.02.2014 00:30 5,8 C 5,8 C 5,8 C 88 % 1019,5 hPa 0,0 l/m 1,6 km/h (1 Bft) NW 315 0 min 0,000 mm 0 W/m 4,0 C 5,8 C 6,4 km/h (2 Bft) 100 %
27.02.2014 00:40 5,8 C 5,7 C 5,8 C 88 % 1019,5 hPa 0,0 l/m 1,6 km/h (1 Bft) NW 315 0 min 0,000 mm 0 W/m 4,0 C 5,8 C 4,8 km/h (1 Bft) 100 %
27.02.2014 00:50 5,7 C 5,7 C 5,8 C 88 % 1019,5 hPa 0,0 l/m 0,0 km/h (0 Bft) NW 315 0 min 0,000 mm 0 W/m 3,9 C 5,7 C 4,8 km/h (1 Bft) 100 %
27.02.2014 01:00 5,6 C 5,6 C 5,7 C 88 % 1019,6 hPa 0,0 l/m 0,0 km/h (0 Bft) NW 315 0 min 0,000 mm 0 W/m 3,8 C 5,6 C 1,6 km/h (1 Bft) 100 %
27.02.2014 01:10 5,6 C 5,6 C 5,7 C 88 % 1019,7 hPa 0,0 l/m 0,0 km/h (0 Bft) NW 315 0 min 0,000 mm 0 W/m 3,8 C 5,6 C 1,6 km/h (1 Bft) 100 %
27.02.2014 01:20 5,6 C 5,6 C 5,7 C 88 % 1019,7 hPa 0,0 l/m 0,0 km/h (0 Bft) NW 315 0 min 0,000 mm 0 W/m 3,8 C 5,6 C 3,2 km/h (1 Bft) 100 %
27.02.2014 01:30 5,6 C 5,6 C 5,7 C 88 % 1019,7 hPa 0,0 l/m 0,0 km/h (0 Bft) NW 315 0 min 0,000 mm 0 W/m 3,8 C 5,6 C 3,2 km/h (1 Bft) 100 %
27.02.2014 01:40 5,6 C 5,6 C 5,7 C 88 % 1019,8 hPa 0,0 l/m 0,0 km/h (0 Bft) NW 315 0 min 0,000 mm 0 W/m 3,8 C 5,6 C 3,2 km/h (1 Bft) 100 %
27.02.2014 01:50 5,6 C 5,6 C 5,7 C 88 % 1020,0 hPa 0,0 l/m 0,0 km/h (0 Bft) NW 315 0 min 0,000 mm 0 W/m 3,8 C 5,6 C 4,8 km/h (1 Bft) 100 %
27.02.2014 02:00 5,6 C 5,6 C 5,6 C 88 % 1020,0 hPa 0,0 l/m 1,6 km/h (1 Bft) W-SW 247 0 min 0,000 mm 0 W/m 3,8 C 5,6 C 8,0 km/h (2 Bft) 100 %
27.02.2014 02:10 5,6 C 5,6 C 5,6 C 88 % 1020,0 hPa 0,0 l/m 0,0 km/h (0 Bft) W-SW 247 0 min 0,000 mm 0 W/m 3,8 C 5,6 C 4,8 km/h (1 Bft) 100 %
27.02.2014 02:20 5,6 C 5,6 C 5,6 C 88 % 1019,7 hPa 0,0 l/m 1,6 km/h (1 Bft) W-NW 292 0 min 0,000 mm 0 W/m 3,8 C 5,6 C 4,8 km/h (1 Bft) 100 %
27.02.2014 02:30 5,5 C 5,5 C 5,6 C 88 % 1019,9 hPa 0,0 l/m 1,6 km/h (1 Bft) W-NW 292 0 min 0,000 mm 0 W/m 3,7 C 5,5 C 8,0 km/h (2 Bft) 100 %
27.02.2014 02:40 5,4 C 5,4 C 5,5 C 88 % 1019,9 hPa 0,0 l/m 3,2 km/h (1 Bft) W-NW 292 0 min 0,000 mm 0 W/m 3,6 C 5,4 C 9,7 km/h (2 Bft) 100 %
27.02.2014 02:50 5,4 C 5,4 C 5,4 C 88 % 1019,8 hPa 0,0 l/m 0,0 km/h (0 Bft) W 270 0 min 0,000 mm 0 W/m 3,6 C 5,4 C 4,8 km/h (1 Bft) 100 %
27.02.2014 03:00 5,3 C 5,3 C 5,4 C 88 % 1019,7 hPa 0,0 l/m 1,6 km/h (1 Bft) NW 315 0 min 0,000 mm 0 W/m 3,5 C 5,3 C 6,4 km/h (2 Bft) 100 %
27.02.2014 03:10 5,3 C 5,3 C 5,3 C 88 % 1019,7 hPa 0,0 l/m 1,6 km/h (1 Bft) NW 315 0 min 0,000 mm 0 W/m 3,5 C 5,3 C 6,4 km/h (2 Bft) 100 %
27.02.2014 03:20 5,3 C 5,3 C 5,3 C 88 % 1019,8 hPa 0,0 l/m 3,2 km/h (1 Bft) W-NW 292 0 min 0,000 mm 0 W/m 3,5 C 5,3 C 9,7 km/h (2 Bft) 100 %
27.02.2014 03:30 5,3 C 5,2 C 5,3 C 88 % 1019,9 hPa 0,0 l/m 1,6 km/h (1 Bft) W-NW 292 0 min 0,000 mm 0 W/m 3,5 C 5,3 C 9,7 km/h (2 Bft) 100 %
27.02.2014 03:40 5,2 C 5,2 C 5,3 C 88 % 1019,7 hPa 0,0 l/m 1,6 km/h (1 Bft) W-NW 292 0 min 0,000 mm 0 W/m 3,4 C 5,2 C 8,0 km/h (2 Bft) 100 %
27.02.2014 03:50 5,2 C 5,2 C 5,2 C 88 % 1019,8 hPa 0,0 l/m 1,6 km/h (1 Bft) W-NW 292 0 min 0,000 mm 0 W/m 3,4 C 5,2 C 8,0 km/h (2 Bft) 100 %
27.02.2014 04:00 5,1 C 5,1 C 5,2 C 88 % 1020,0 hPa 0,0 l/m 0,0 km/h (0 Bft) NW 315 0 min 0,000 mm 0 W/m 3,3 C 5,1 C 4,8 km/h (1 Bft) 95 %
27.02.2014 04:10 5,1 C 5,1 C 5,1 C 88 % 1020,0 hPa 0,0 l/m 1,6 km/h (1 Bft) W-SW 247 0 min 0,000 mm 0 W/m 3,3 C 5,1 C 8,0 km/h (2 Bft) 86 %
27.02.2014 04:20 5,1 C 5,1 C 5,1 C 88 % 1020,0 hPa 0,0 l/m 1,6 km/h (1 Bft) W-SW 247 0 min 0,000 mm 0 W/m 3,3 C 5,1 C 6,4 km/h (2 Bft) 100 %
27.02.2014 04:30 5,1 C 5,1 C 5,1 C 88 % 1020,0 hPa 0,0 l/m 1,6 km/h (1 Bft) W-SW 247 0 min 0,000 mm 0 W/m 3,3 C 5,1 C 4,8 km/h (1 Bft) 91 %
27.02.2014 04:40 5,1 C 5,0 C 5,1 C 88 % 1019,9 hPa 0,0 l/m 1,6 km/h (1 Bft) W-SW 247 0 min 0,000 mm 0 W/m 3,3 C 5,1 C 8,0 km/h (2 Bft) 99 %
27.02.2014 04:50 5,1 C 5,0 C 5,1 C 88 % 1019,9 hPa 0,0 l/m 1,6 km/h (1 Bft) W-SW 247 0 min 0,000 mm 0 W/m 3,3 C 5,1 C 6,4 km/h (2 Bft) 100 %
27.02.2014 05:00 5,1 C 5,0 C 5,1 C 88 % 1019,9 hPa 0,0 l/m 0,0 km/h (0 Bft) W-SW 247 0 min 0,000 mm 0 W/m 3,3 C 5,1 C 3,2 km/h (1 Bft) 100 %
27.02.2014 05:10 5,0 C 5,0 C 5,1 C 88 % 1019,8 hPa 0,0 l/m 1,6 km/h (1 Bft) W-SW 247 0 min 0,000 mm 0 W/m 3,2 C 5,0 C 4,8 km/h (1 Bft) 99 %
27.02.2014 05:20 5,1 C 5,0 C 5,1 C 88 % 1019,8 hPa 0,0 l/m 0,0 km/h (0 Bft) W-SW 247 0 min 0,000 mm 0 W/m 3,3 C 5,1 C 4,8 km/h (1 Bft) 100 %
27.02.2014 05:30 5,1 C 5,0 C 5,1 C 88 % 1019,9 hPa 0,0 l/m 1,6 km/h (1 Bft) W-SW 247 0 min 0,000 mm 0 W/m 3,3 C 5,1 C 6,4 km/h (2 Bft) 97 %
27.02.2014 05:40 5,0 C 5,0 C 5,1 C 88 % 1019,9 hPa 0,0 l/m 1,6 km/h (1 Bft) SW 225 0 min 0,000 mm 0 W/m 3,2 C 5,0 C 8,0 km/h (2 Bft) 96 %
27.02.2014 05:50 5,1 C 5,0 C 5,1 C 88 % 1019,9 hPa 0,0 l/m 1,6 km/h (1 Bft) W-SW 247 0 min 0,000 mm 0 W/m 3,3 C 5,1 C 6,4 km/h (2 Bft) 99 %
27.02.2014 06:00 5,1 C 5,1 C 5,1 C 88 % 1019,8 hPa 0,0 l/m 0,0 km/h (0 Bft) SW 225 0 min 0,000 mm 0 W/m 3,3 C 5,1 C 4,8 km/h (1 Bft) 97 %
27.02.2014 06:10 5,1 C 5,0 C 5,1 C 88 % 1019,7 hPa 0,0 l/m 1,6 km/h (1 Bft) SW 225 0 min 0,000 mm 0 W/m 3,3 C 5,1 C 3,2 km/h (1 Bft) 88 %
27.02.2014 06:20 5,1 C 5,0 C 5,1 C 88 % 1019,8 hPa 0,0 l/m 1,6 km/h (1 Bft) W-SW 247 0 min 0,000 mm 0 W/m 3,3 C 5,1 C 6,4 km/h (2 Bft) 96 %
27.02.2014 06:30 5,0 C 5,0 C 5,1 C 88 % 1019,9 hPa 0,0 l/m 4,8 km/h (1 Bft) W-SW 247 0 min 0,000 mm 0 W/m 3,2 C 5,0 C 9,7 km/h (2 Bft) 98 %
27.02.2014 06:40 5,0 C 5,0 C 5,0 C 88 % 1019,8 hPa 0,0 l/m 1,6 km/h (1 Bft) W 270 0 min 0,000 mm 0 W/m 3,2 C 5,0 C 9,7 km/h (2 Bft) 96 %
27.02.2014 06:50 5,0 C 5,0 C 5,0 C 88 % 1019,8 hPa 0,0 l/m 1,6 km/h (1 Bft) W 270 0 min 0,000 mm 0 W/m 3,2 C 5,0 C 6,4 km/h (2 Bft) 97 %
27.02.2014 07:00 5,0 C 5,0 C 5,0 C 88 % 1019,8 hPa 0,0 l/m 1,6 km/h (1 Bft) SW 225 0 min 0,000 mm 0 W/m 3,2 C 5,0 C 8,0 km/h (2 Bft) 97 %
27.02.2014 07:10 4,9 C 4,9 C 5,0 C 88 % 1019,8 hPa 0,0 l/m 1,6 km/h (1 Bft) W 270 0 min 0,000 mm 0 W/m 3,1 C 4,9 C 6,4 km/h (2 Bft) 98 %
27.02.2014 07:20 4,9 C 4,9 C 4,9 C 88 % 1019,8 hPa 0,0 l/m 3,2 km/h (1 Bft) W 270 0 min 0,000 mm 0 W/m 3,1 C 4,9 C 6,4 km/h (2 Bft) 97 %
27.02.2014 07:30 4,9 C 4,9 C 4,9 C 88 % 1019,8 hPa 0,0 l/m 1,6 km/h (1 Bft) SW 225 0 min 0,000 mm 0 W/m 3,1 C 4,9 C 9,7 km/h (2 Bft) 98 %
27.02.2014 07:40 4,8 C 4,8 C 4,9 C 88 % 1019,9 hPa 0,0 l/m 3,2 km/h (1 Bft) W-NW 292 0 min 0,000 mm 5 W/m 3,0 C 4,8 C 11,3 km/h (2 Bft) 98 %
27.02.2014 07:50 4,8 C 4,8 C 4,8 C 88 % 1020,0 hPa 0,0 l/m 1,6 km/h (1 Bft) W 270 0 min 0,000 mm 9 W/m 3,0 C 4,8 C 8,0 km/h (2 Bft) 98 %
27.02.2014 08:00 4,8 C 4,8 C 4,8 C 88 % 1019,9 hPa 0,0 l/m 1,6 km/h (1 Bft) W-SW 247 0 min 0,000 mm 11 W/m 3,0 C 4,8 C 8,0 km/h (2 Bft) 98 %
27.02.2014 08:10 4,8 C 4,8 C 4,8 C 88 % 1019,9 hPa 0,0 l/m 1,6 km/h (1 Bft) W-SW 247 0 min 0,000 mm 21 W/m 3,0 C 4,8 C 9,7 km/h (2 Bft) 97 %
27.02.2014 08:20 4,8 C 4,8 C 4,8 C 88 % 1019,9 hPa 0,0 l/m 1,6 km/h (1 Bft) SW 225 0 min 0,000 mm 25 W/m 3,0 C 4,8 C 8,0 km/h (2 Bft) 98 %
27.02.2014 08:30 4,8 C 4,8 C 4,8 C 88 % 1019,9 hPa 0,0 l/m 1,6 km/h (1 Bft) W-SW 247 0 min 0,000 mm 32 W/m 3,0 C 4,8 C 4,8 km/h (1 Bft) 97 %
27.02.2014 08:40 4,9 C 4,8 C 4,9 C 88 % 1019,9 hPa 0,0 l/m 3,2 km/h (1 Bft) SW 225 0 min 0,000 mm 26 W/m 3,1 C 4,9 C 11,3 km/h (2 Bft) 98 %
27.02.2014 08:50 4,8 C 4,8 C 4,9 C 88 % 1020,0 hPa 0,0 l/m 4,8 km/h (1 Bft) SW 225 0 min 0,000 mm 39 W/m 3,0 C 4,8 C 20,9 km/h (4 Bft) 97 %
27.02.2014 09:00 4,8 C 4,8 C 4,8 C 88 % 1020,0 hPa 0,0 l/m 8,0 km/h (2 Bft) SW 225 0 min 0,025 mm 39 W/m 3,0 C 3,4 C 20,9 km/h (4 Bft) 98 %
27.02.2014 09:10 4,8 C 4,8 C 4,8 C 89 % 1020,0 hPa 0,0 l/m 6,4 km/h (2 Bft) W 270 0 min 0,000 mm 39 W/m 3,1 C 4,8 C 19,3 km/h (3 Bft) 98 %
27.02.2014 09:20 4,8 C 4,8 C 4,8 C 89 % 1019,9 hPa 0,0 l/m 4,8 km/h (1 Bft) SW 225 0 min 0,000 mm 35 W/m 3,1 C 4,8 C 11,3 km/h (2 Bft) 97 %
27.02.2014 09:30 4,8 C 4,8 C 4,8 C 89 % 1020,0 hPa 0,0 l/m 4,8 km/h (1 Bft) SW 225 0 min 0,000 mm 40 W/m 3,1 C 4,8 C 14,5 km/h (3 Bft) 97 %
27.02.2014 09:40 4,7 C 4,7 C 4,8 C 89 % 1019,9 hPa 0,0 l/m 4,8 km/h (1 Bft) SW 225 0 min 0,000 mm 56 W/m 3,0 C 4,7 C 14,5 km/h (3 Bft) 98 %
27.02.2014 09:50 4,8 C 4,7 C 4,8 C 89 % 1019,9 hPa 0,0 l/m 3,2 km/h (1 Bft) SW 225 0 min 0,000 mm 74 W/m 3,1 C 4,8 C 11,3 km/h (2 Bft) 98 %
27.02.2014 10:00 4,9 C 4,8 C 4,9 C 88 % 1019,8 hPa 0,0 l/m 0,0 km/h (0 Bft) S-SW 202 0 min 0,025 mm 91 W/m 3,1 C 4,9 C 4,8 km/h (1 Bft) 97 %
27.02.2014 10:10 5,1 C 4,9 C 5,1 C 89 % 1019,6 hPa 0,0 l/m 4,8 km/h (1 Bft) W-NW 292 0 min 0,000 mm 125 W/m 3,4 C 5,1 C 14,5 km/h (3 Bft) 98 %
27.02.2014 10:20 5,2 C 5,1 C 5,2 C 89 % 1019,7 hPa 0,0 l/m 3,2 km/h (1 Bft) W 270 10 min 0,000 mm 193 W/m 3,5 C 5,2 C 11,3 km/h (2 Bft) 97 %
27.02.2014 10:30 5,6 C 5,2 C 5,6 C 89 % 1019,5 hPa 0,0 l/m 1,6 km/h (1 Bft) W 270 10 min 0,000 mm 202 W/m 3,9 C 5,6 C 8,0 km/h (2 Bft) 97 %
27.02.2014 10:40 5,8 C 5,6 C 5,8 C 88 % 1019,5 hPa 0,0 l/m 3,2 km/h (1 Bft) W 270 10 min 0,000 mm 246 W/m 4,0 C 5,8 C 8,0 km/h (2 Bft) 97 %
27.02.2014 10:50 6,1 C 5,8 C 6,1 C 87 % 1019,3 hPa 0,0 l/m 4,8 km/h (1 Bft) SW 225 10 min 0,000 mm 371 W/m 4,1 C 6,1 C 14,5 km/h (3 Bft) 98 %
27.02.2014 11:00 6,5 C 6,2 C 6,5 C 86 % 1019,3 hPa 0,0 l/m 4,8 km/h (1 Bft) W 270 10 min 0,102 mm 601 W/m 4,3 C 6,5 C 16,1 km/h (3 Bft) 98 %
27.02.2014 11:10 7,0 C 6,6 C 7,0 C 83 % 1019,1 hPa 0,0 l/m 3,2 km/h (1 Bft) W 270 10 min 0,000 mm 529 W/m 4,3 C 7,0 C 16,1 km/h (3 Bft) 96 %
27.02.2014 11:20 7,2 C 7,0 C 7,2 C 82 % 1018,9 hPa 0,0 l/m 4,8 km/h (1 Bft) W-SW 247 10 min 0,000 mm 582 W/m 4,3 C 7,2 C 14,5 km/h (3 Bft) 97 %
27.02.2014 11:30 7,6 C 7,2 C 7,6 C 81 % 1018,7 hPa 0,0 l/m 3,2 km/h (1 Bft) SW 225 10 min 0,000 mm 559 W/m 4,6 C 7,6 C 16,1 km/h (3 Bft) 97 %
27.02.2014 11:40 7,7 C 7,6 C 7,8 C 78 % 1018,6 hPa 0,0 l/m 4,8 km/h (1 Bft) SW 225 10 min 0,000 mm 538 W/m 4,1 C 7,7 C 12,9 km/h (3 Bft) 98 %
27.02.2014 11:50 7,6 C 7,6 C 7,7 C 78 % 1018,4 hPa 0,0 l/m 4,8 km/h (1 Bft) W 270 10 min 0,000 mm 378 W/m 4,0 C 7,6 C 14,5 km/h (3 Bft) 97 %
27.02.2014 12:00 7,8 C 7,6 C 7,8 C 79 % 1018,1 hPa 0,0 l/m 6,4 km/h (2 Bft) W 270 10 min 0,178 mm 714 W/m 4,4 C 7,8 C 14,5 km/h (3 Bft) 98 %
27.02.2014 12:10 7,8 C 7,8 C 7,9 C 76 % 1018,0 hPa 0,0 l/m 9,7 km/h (2 Bft) S-SW 202 10 min 0,000 mm 309 W/m 3,8 C 5,4 C 17,7 km/h (3 Bft) 97 %
27.02.2014 12:20 7,5 C 7,5 C 7,8 C 77 % 1017,8 hPa 0,0 l/m 9,7 km/h (2 Bft) S-SW 202 10 min 0,000 mm 257 W/m 3,7 C 5,0 C 16,1 km/h (3 Bft) 97 %
27.02.2014 12:30 7,9 C 7,5 C 7,9 C 78 % 1017,6 hPa 0,0 l/m 8,0 km/h (2 Bft) S-SW 202 10 min 0,000 mm 649 W/m 4,3 C 6,6 C 17,7 km/h (3 Bft) 100 %
27.02.2014 12:40 8,2 C 7,9 C 8,2 C 74 % 1017,5 hPa 0,0 l/m 9,7 km/h (2 Bft) SW 225 10 min 0,000 mm 661 W/m 3,8 C 5,8 C 20,9 km/h (4 Bft) 99 %
27.02.2014 12:50 8,5 C 8,2 C 8,5 C 73 % 1017,2 hPa 0,0 l/m 9,7 km/h (2 Bft) S-SW 202 10 min 0,000 mm 578 W/m 3,9 C 6,1 C 17,7 km/h (3 Bft) 99 %
27.02.2014 13:00 8,1 C 8,1 C 8,5 C 75 % 1017,0 hPa 0,0 l/m 8,0 km/h (2 Bft) S-SW 202 10 min 0,178 mm 329 W/m 3,9 C 6,9 C 17,7 km/h (3 Bft) 100 %
27.02.2014 13:10 7,7 C 7,7 C 8,1 C 73 % 1016,7 hPa 0,0 l/m 9,7 km/h (2 Bft) S-SW 202 10 min 0,000 mm 250 W/m 3,2 C 5,2 C 19,3 km/h (3 Bft) 100 %
27.02.2014 13:20 7,8 C 7,7 C 7,8 C 74 % 1016,6 hPa 0,0 l/m 6,4 km/h (2 Bft) S-SW 202 10 min 0,000 mm 332 W/m 3,5 C 7,8 C 14,5 km/h (3 Bft) 100 %
27.02.2014 13:30 7,9 C 7,8 C 7,9 C 74 % 1016,2 hPa 0,0 l/m 3,2 km/h (1 Bft) S 180 10 min 0,000 mm 404 W/m 3,6 C 7,9 C 11,3 km/h (2 Bft) 100 %
27.02.2014 13:40 8,2 C 7,9 C 8,2 C 73 % 1016,0 hPa 0,0 l/m 11,3 km/h (2 Bft) S-SW 202 10 min 0,000 mm 431 W/m 3,7 C 4,8 C 20,9 km/h (4 Bft) 100 %
27.02.2014 13:50 8,0 C 8,0 C 8,2 C 73 % 1015,7 hPa 0,0 l/m 4,8 km/h (1 Bft) S-SW 202 10 min 0,000 mm 190 W/m 3,5 C 8,0 C 16,1 km/h (3 Bft) 100 %
27.02.2014 14:00 8,0 C 7,9 C 8,0 C 76 % 1015,6 hPa 0,0 l/m 1,6 km/h (1 Bft) SW 225 10 min 0,127 mm 329 W/m 4,0 C 8,0 C 8,0 km/h (2 Bft) 98 %
27.02.2014 14:10 8,1 C 8,0 C 8,1 C 76 % 1015,4 hPa 0,0 l/m 3,2 km/h (1 Bft) SO 135 10 min 0,000 mm 608 W/m 4,1 C 8,1 C 17,7 km/h (3 Bft) 100 %
27.02.2014 14:20 8,2 C 8,1 C 8,2 C 73 % 1015,3 hPa 0,0 l/m 3,2 km/h (1 Bft) SW 225 10 min 0,000 mm 350 W/m 3,7 C 8,2 C 9,7 km/h (2 Bft) 87 %
27.02.2014 14:30 8,1 C 8,1 C 8,2 C 71 % 1015,2 hPa 0,0 l/m 4,8 km/h (1 Bft) SO 135 10 min 0,000 mm 483 W/m 3,2 C 8,1 C 16,1 km/h (3 Bft) 100 %
27.02.2014 14:40 7,8 C 7,8 C 8,1 C 72 % 1014,9 hPa 0,0 l/m 6,4 km/h (2 Bft) S-SO 157 10 min 0,000 mm 183 W/m 3,1 C 7,8 C 16,1 km/h (3 Bft) 99 %
27.02.2014 14:50 7,8 C 7,8 C 7,8 C 72 % 1014,8 hPa 0,0 l/m 4,8 km/h (1 Bft) SO 135 10 min 0,000 mm 211 W/m 3,1 C 7,8 C 11,3 km/h (2 Bft) 100 %
27.02.2014 15:00 7,9 C 7,8 C 7,9 C 72 % 1014,6 hPa 0,0 l/m 3,2 km/h (1 Bft) SO 135 10 min 0,127 mm 278 W/m 3,2 C 7,9 C 12,9 km/h (3 Bft) 100 %
27.02.2014 15:10 7,9 C 7,8 C 7,9 C 71 % 1014,4 hPa 0,0 l/m 8,0 km/h (2 Bft) S 180 10 min 0,000 mm 174 W/m 3,0 C 6,6 C 16,1 km/h (3 Bft) 100 %
27.02.2014 15:20 7,9 C 7,9 C 8,0 C 73 % 1014,3 hPa 0,0 l/m 8,0 km/h (2 Bft) S-SW 202 0 min 0,000 mm 135 W/m 3,4 C 6,6 C 19,3 km/h (3 Bft) 100 %
27.02.2014 15:30 7,8 C 7,8 C 8,0 C 71 % 1014,3 hPa 0,0 l/m 8,0 km/h (2 Bft) S-SO 157 0 min 0,000 mm 128 W/m 2,9 C 6,5 C 17,7 km/h (3 Bft) 100 %
27.02.2014 15:40 7,8 C 7,8 C 7,8 C 71 % 1014,2 hPa 0,0 l/m 4,8 km/h (1 Bft) S-SO 157 0 min 0,000 mm 130 W/m 2,9 C 7,8 C 14,5 km/h (3 Bft) 100 %
27.02.2014 15:50 7,7 C 7,7 C 7,8 C 71 % 1014,1 hPa 0,0 l/m 4,8 km/h (1 Bft) SO 135 0 min 0,000 mm 100 W/m 2,8 C 7,7 C 9,7 km/h (2 Bft) 100 %
27.02.2014 16:00 7,7 C 7,7 C 7,7 C 73 % 1013,9 hPa 0,0 l/m 1,6 km/h (1 Bft) S-SO 157 0 min 0,076 mm 63 W/m 3,2 C 7,7 C 9,7 km/h (2 Bft) 100 %
27.02.2014 16:10 7,7 C 7,7 C 7,8 C 72 % 1013,7 hPa 0,0 l/m 1,6 km/h (1 Bft) S-SO 157 0 min 0,000 mm 56 W/m 3,0 C 7,7 C 8,0 km/h (2 Bft) 100 %
27.02.2014 16:20 7,8 C 7,7 C 7,8 C 71 % 1013,5 hPa 0,0 l/m 1,6 km/h (1 Bft) SO 135 0 min 0,000 mm 83 W/m 2,9 C 7,8 C 6,4 km/h (2 Bft) 100 %
27.02.2014 16:30 7,8 C 7,8 C 7,9 C 72 % 1013,4 hPa 0,0 l/m 1,6 km/h (1 Bft) S-SW 202 0 min 0,000 mm 76 W/m 3,1 C 7,8 C 4,8 km/h (1 Bft) 100 %
27.02.2014 16:40 7,9 C 7,9 C 7,9 C 72 % 1013,4 hPa 0,0 l/m 0,0 km/h (0 Bft) SW 225 0 min 0,000 mm 69 W/m 3,2 C 7,9 C 1,6 km/h (1 Bft) 100 %
27.02.2014 16:50 8,1 C 7,9 C 8,1 C 72 % 1013,1 hPa 0,0 l/m 1,6 km/h (1 Bft) W-SW 247 0 min 0,000 mm 95 W/m 3,4 C 8,1 C 6,4 km/h (2 Bft) 100 %
27.02.2014 17:00 8,2 C 8,1 C 8,2 C 72 % 1012,9 hPa 0,0 l/m 0,0 km/h (0 Bft) SW 225 0 min 0,025 mm 98 W/m 3,5 C 8,2 C 4,8 km/h (1 Bft) 99 %
27.02.2014 17:10 8,2 C 8,2 C 8,3 C 70 % 1012,7 hPa 0,0 l/m 1,6 km/h (1 Bft) S-SW 202 0 min 0,000 mm 44 W/m 3,1 C 8,2 C 9,7 km/h (2 Bft) 100 %
27.02.2014 17:20 7,8 C 7,8 C 8,3 C 72 % 1012,5 hPa 0,0 l/m 0,4 km/h (0 Bft) S-SW 199 0 min 0,001 mm 19 W/m 3,1 C 7,8 C 3,2 km/h (1 Bft) 97 %
27.02.2014 17:30 7,6 C 7,6 C 7,8 C 71 % 1012,5 hPa 0,0 l/m 0,0 km/h (0 Bft) S-SW 199 0 min 0,000 mm 16 W/m 2,7 C 7,6 C 0,0 km/h (0 Bft) 97 %
27.02.2014 17:40 7,4 C 7,4 C 7,6 C 72 % 1012,4 hPa 0,0 l/m 0,0 km/h (0 Bft) S-SW 199 0 min 0,000 mm 7 W/m 2,7 C 7,4 C 0,0 km/h (0 Bft) 97 %
27.02.2014 17:50 7,2 C 7,2 C 7,4 C 73 % 1012,4 hPa 0,0 l/m 0,0 km/h (0 Bft) S-SW 199 0 min 0,000 mm 0 W/m 2,7 C 7,2 C 0,0 km/h (0 Bft) 97 %
27.02.2014 18:00 7,1 C 7,1 C 7,2 C 74 % 1012,4 hPa 0,0 l/m 0,0 km/h (0 Bft) S-SW 199 0 min 0,000 mm 0 W/m 2,8 C 7,1 C 0,0 km/h (0 Bft) 97 %
27.02.2014 18:10 6,9 C 6,9 C 7,1 C 75 % 1012,4 hPa 0,0 l/m 0,0 km/h (0 Bft) S-SW 202 0 min 0,000 mm 0 W/m 2,8 C 6,9 C 0,0 km/h (0 Bft) 97 %
27.02.2014 18:20 6,8 C 6,8 C 6,9 C 75 % 1012,4 hPa 0,0 l/m 0,0 km/h (0 Bft) S-SW 202 0 min 0,000 mm 0 W/m 2,7 C 6,8 C 0,0 km/h (0 Bft) 89 %
27.02.2014 18:30 6,6 C 6,6 C 6,8 C 75 % 1012,4 hPa 0,0 l/m 0,0 km/h (0 Bft) S-SW 202 0 min 0,000 mm 0 W/m 2,5 C 6,6 C 0,0 km/h (0 Bft) 97 %
27.02.2014 18:40 6,5 C 6,5 C 6,6 C 77 % 1012,4 hPa 0,0 l/m 0,0 km/h (0 Bft) S-SW 202 0 min 0,000 mm 0 W/m 2,8 C 6,5 C 0,0 km/h (0 Bft) 97 %
27.02.2014 18:50 6,4 C 6,4 C 6,6 C 77 % 1012,3 hPa 0,0 l/m 0,1 km/h (0 Bft) S-SW 202 0 min 0,000 mm 0 W/m 2,7 C 6,4 C 1,6 km/h (1 Bft) 97 %
27.02.2014 19:00 6,2 C 6,2 C 6,4 C 78 % 1012,4 hPa 0,0 l/m 0,0 km/h (0 Bft) S-SW 202 0 min 0,000 mm 0 W/m 2,7 C 6,2 C 0,0 km/h (0 Bft) 97 %
27.02.2014 19:10 6,2 C 6,2 C 6,2 C 78 % 1012,2 hPa 0,0 l/m 0,0 km/h (0 Bft) S-SW 202 0 min 0,000 mm 0 W/m 2,7 C 6,2 C 1,6 km/h (1 Bft) 97 %
27.02.2014 19:20 6,2 C 6,2 C 6,2 C 80 % 1012,3 hPa 0,0 l/m 0,4 km/h (0 Bft) SW 219 0 min 0,000 mm 0 W/m 3,0 C 6,2 C 3,2 km/h (1 Bft) 89 %
27.02.2014 19:30 6,0 C 6,0 C 6,2 C 80 % 1012,2 hPa 0,0 l/m 0,0 km/h (0 Bft) SW 218 0 min 0,000 mm 0 W/m 2,8 C 6,0 C 1,6 km/h (1 Bft) 97 %
27.02.2014 19:40 6,0 C 5,9 C 6,0 C 79 % 1012,2 hPa 0,0 l/m 0,5 km/h (0 Bft) S 184 0 min 0,000 mm 0 W/m 2,6 C 6,0 C 3,2 km/h (1 Bft) 97 %
27.02.2014 19:50 5,9 C 5,9 C 6,1 C 81 % 1012,1 hPa 0,0 l/m 0,0 km/h (0 Bft) S 185 0 min 0,000 mm 0 W/m 2,9 C 5,9 C 1,6 km/h (1 Bft) 98 %
27.02.2014 20:00 5,8 C 5,8 C 5,9 C 81 % 1012,0 hPa 0,0 l/m 0,9 km/h (0 Bft) S-SO 149 0 min 0,000 mm 0 W/m 2,8 C 5,8 C 4,8 km/h (1 Bft) 97 %
27.02.2014 20:10 5,9 C 5,8 C 5,9 C 80 % 1012,0 hPa 0,0 l/m 1,3 km/h (1 Bft) SO 137 0 min 0,000 mm 0 W/m 2,7 C 5,9 C 6,4 km/h (2 Bft) 97 %
27.02.2014 20:20 6,2 C 5,9 C 6,2 C 78 % 1011,8 hPa 0,0 l/m 3,5 km/h (1 Bft) SO 134 0 min 0,000 mm 0 W/m 2,7 C 6,2 C 11,3 km/h (2 Bft) 97 %
27.02.2014 20:30 6,3 C 6,2 C 6,3 C 77 % 1011,7 hPa 0,0 l/m 2,9 km/h (1 Bft) S 186 0 min 0,000 mm 0 W/m 2,6 C 6,3 C 9,7 km/h (2 Bft) 97 %
27.02.2014 20:40 6,4 C 6,3 C 6,4 C 77 % 1011,7 hPa 0,0 l/m 4,8 km/h (1 Bft) S-SO 152 0 min 0,000 mm 0 W/m 2,7 C 6,4 C 11,3 km/h (2 Bft) 97 %
27.02.2014 20:50 6,4 C 6,4 C 6,4 C 77 % 1011,7 hPa 0,0 l/m 5,6 km/h (1 Bft) S 173 0 min 0,000 mm 0 W/m 2,7 C 6,4 C 11,3 km/h (2 Bft) 96 %
27.02.2014 21:00 6,3 C 6,3 C 6,4 C 78 % 1011,6 hPa 0,0 l/m 4,8 km/h (1 Bft) S 187 0 min 0,025 mm 0 W/m 2,8 C 6,3 C 11,3 km/h (2 Bft) 97 %
27.02.2014 21:10 6,2 C 6,2 C 6,3 C 79 % 1011,6 hPa 0,0 l/m 4,8 km/h (1 Bft) S-SW 202 0 min 0,000 mm 0 W/m 2,8 C 6,2 C 11,3 km/h (2 Bft) 100 %
27.02.2014 21:20 6,1 C 6,1 C 6,2 C 79 % 1011,7 hPa 0,0 l/m 4,8 km/h (1 Bft) S-SW 202 0 min 0,000 mm 0 W/m 2,7 C 6,1 C 11,3 km/h (2 Bft) 100 %
27.02.2014 21:30 6,1 C 6,1 C 6,1 C 81 % 1011,8 hPa 0,0 l/m 6,4 km/h (2 Bft) S-SW 202 0 min 0,000 mm 0 W/m 3,1 C 6,1 C 16,1 km/h (3 Bft) 100 %
27.02.2014 21:40 5,8 C 5,8 C 6,1 C 83 % 1011,8 hPa 0,2 l/m 9,7 km/h (2 Bft) S-SW 202 0 min 0,000 mm 0 W/m 3,1 C 3,2 C 19,3 km/h (3 Bft) 100 %
27.02.2014 21:50 5,6 C 5,5 C 5,8 C 85 % 1011,7 hPa 0,2 l/m 6,4 km/h (2 Bft) SW 225 0 min 0,000 mm 0 W/m 3,3 C 5,6 C 12,9 km/h (3 Bft) 91 %
27.02.2014 22:00 5,2 C 5,2 C 5,5 C 86 % 1011,8 hPa 0,0 l/m 9,7 km/h (2 Bft) SW 225 0 min 0,025 mm 0 W/m 3,1 C 2,5 C 27,4 km/h (4 Bft) 100 %
27.02.2014 22:10 4,8 C 4,8 C 5,2 C 86 % 1011,7 hPa 0,0 l/m 11,3 km/h (2 Bft) W-SW 247 0 min 0,000 mm 0 W/m 2,7 C 1,0 C 27,4 km/h (4 Bft) 100 %
27.02.2014 22:20 4,5 C 4,5 C 4,8 C 87 % 1011,5 hPa 0,4 l/m 4,8 km/h (1 Bft) W-SW 247 0 min 0,000 mm 0 W/m 2,5 C 4,5 C 12,9 km/h (3 Bft) 100 %
27.02.2014 22:30 4,3 C 4,3 C 4,5 C 87 % 1011,4 hPa 0,0 l/m 3,2 km/h (1 Bft) W-SW 247 0 min 0,000 mm 0 W/m 2,3 C 4,3 C 8,0 km/h (2 Bft) 100 %
27.02.2014 22:40 4,2 C 4,2 C 4,3 C 87 % 1011,3 hPa 0,2 l/m 1,6 km/h (1 Bft) W-SW 247 0 min 0,000 mm 0 W/m 2,2 C 4,2 C 8,0 km/h (2 Bft) 100 %
27.02.2014 22:50 4,1 C 4,1 C 4,2 C 88 % 1011,0 hPa 0,0 l/m 1,6 km/h (1 Bft) W-SW 247 0 min 0,000 mm 0 W/m 2,3 C 4,1 C 6,4 km/h (2 Bft) 100 %
27.02.2014 23:00 4,0 C 4,0 C 4,1 C 88 % 1011,0 hPa 0,0 l/m 0,0 km/h (0 Bft) W-SW 247 0 min 0,000 mm 0 W/m 2,2 C 4,0 C 1,6 km/h (1 Bft) 100 %
27.02.2014 23:10 4,0 C 4,0 C 4,0 C 88 % 1010,9 hPa 0,0 l/m 0,0 km/h (0 Bft) W-SW 247 0 min 0,000 mm 0 W/m 2,2 C 4,0 C 1,6 km/h (1 Bft) 100 %
27.02.2014 23:20 3,9 C 3,9 C 4,0 C 88 % 1010,8 hPa 0,2 l/m 0,0 km/h (0 Bft) W-SW 247 0 min 0,000 mm 0 W/m 2,1 C 3,9 C 1,6 km/h (1 Bft) 100 %
27.02.2014 23:30 3,9 C 3,9 C 4,0 C 88 % 1010,6 hPa 0,0 l/m 0,0 km/h (0 Bft) W-SW 247 0 min 0,000 mm 0 W/m 2,1 C 3,9 C 3,2 km/h (1 Bft) 100 %
27.02.2014 23:40 3,8 C 3,8 C 3,9 C 88 % 1010,5 hPa 0,2 l/m 0,0 km/h (0 Bft) W-SW 247 0 min 0,000 mm 0 W/m 2,0 C 3,8 C 3,2 km/h (1 Bft) 90 %
27.02.2014 23:50 3,7 C 3,7 C 3,8 C 88 % 1010,4 hPa 0,0 l/m 0,0 km/h (0 Bft) W-SW 247 0 min 0,000 mm 0 W/m 1,9 C 3,7 C 3,2 km/h (1 Bft) 100 %
_ Min-Zeit 23:50 23:50 23:50 17:10 23:50 - 00:50 - - - - - 23:50 22:10 17:30 04:10
Minimum _ 3,7 C 3,7 C 3,8 C 70 % 1010,4 hPa - 0,0 km/h (0 Bft) - - - - - 1,9 C 1,0 C 0,0 km/h (0 Bft) 86 %
_ Max-Zeit 12:50 12:50 12:50 09:10 01:50 22:20 13:40 - - 10:20 12:00 12:00 11:30 14:20 22:00 00:00
Maximum _ 8,5 C 8,2 C 8,5 C 89 % 1020,0 hPa 0,4 l/m 11,3 km/h
S-SW (2 Bft)
- - 10 min 0,178 mm 714 W/m 4,6 C 8,2 C 27,4 km/h
W-SW (4 Bft)
100 %
Durchschnitt _ 6,1 C 6,0 C 6,1 C 82 % 1016,5 hPa #1,4 l/m 2,9 km/h (1 Bft) W-SW - #5:00 h #0,914 mm 225 W/m 3,2 C 5,8 C 9,0 km/h (2 Bft) 98 %
PRIVATE WETTERSTATION BILLIGHEIM-ALLFELD - www.neckar-odenwald-wetter.de - Holger Sonntag